User: anonymous   Login
Location: Unspecified
(42.1900°N, 71.3291°W)
Time: 13:35:23
(UTC-04:00)
Language:

Resurs 1-4 Rocket - Orbit

View from above orbital plane
View from above orbital plane
View from above satellite
View from above satellite

Ground track
Ground track

The orbit data is extracted from the following two-line orbital elements,

1 25400U 98043G   17266.97879882 -.00000004  00000-0  16265-4 0  9994
2 25400  98.4971 212.0852 0010135  13.6670 346.4783 14.25418289999145
Epoch (UTC): 23 September 2017 23:29:28
Eccentricity: 0.0010135
inclination: 98.4971°
perigee height: 800 km
apogee height: 814 km
right ascension of ascending node: 212.0852°
argument of perigee: 13.6670°
revolutions per day: 14.25418289
mean anomaly at epoch: 346.4783°
orbit number at epoch: 99914

The dashed part of the orbit path shows where the satellite is in the earth's shadow,  

DLR